"2022-04-02",00:01,1.362,1.388,1.39,1.366,-0.081,1.3,65.01,-4.98,-4.082,268.8,315.5,-47.6,-1.446,-1.418,256.7,0,7999.,0.,100000,101.5104,0.2,0.2,5.082,5.59,4.652,4.051,6.2,358.867,0.566,5.111,5.88,6.413,-999,7.999,9.079,1.126,-999.,-999.,8.542,-6.261,-5.899,-7.76,-22.588,0.57,0.561,0.691,0.738,0.485,0.56,0.686,0.731,0.462,,100.,0.,0.,0.,15.38,213.,213.
"2022-04-02",00:02,1.391,1.408,1.388,1.367,-0.11,1.3,65.27,-4.937,-4.082,268.9,315.3,-47.3,-1.446,-1.418,256.7,0,7999.,0.,100000,101.5136,0.2,0.2,5.133,6.21,0.467,4.119,5.07,357.268,0.566,5.111,5.883,6.413,-999,7.989,9.079,1.126,-999.,-999.,8.535,-6.26,-5.905,-7.763,-22.597,0.57,0.561,0.691,0.738,0.485,0.56,0.686,0.73,0.462,,100.,0.,0.,0.,15.38,213.,213.
"2022-04-02",00:03,1.408,1.421,1.423,1.406,-0.12,1.387,64.75,-4.904,-4.072,269.,315.4,-47.2,-1.446,-1.356,256.9,0,7999.,0.,100000,101.5094,0.2,0.2,5.649,7.07,1.732,4.382,5.31,3.724,0.566,5.117,5.883,6.417,-999,7.989,9.076,1.11,-999.,-999.,8.538,-6.263,-5.913,-7.768,-22.604,0.57,0.561,0.691,0.738,0.485,0.56,0.685,0.731,0.462,,100.,0.,0.,0.,15.38,213.,213.
"2022-04-02",00:04,1.375,1.372,1.429,1.414,-0.12,1.387,64.77,-4.904,-4.061,268.9,315.3,-47.2,-1.445,-1.294,256.9,0,7999.,0.,100000,101.507,0.2,0.2,5.61,6.53,3.464,4.553,5.79,0.403,0.566,5.114,5.883,6.41,-999,8.006,9.079,1.113,-999.,-999.,8.532,-6.266,-5.917,-7.774,-22.613,0.57,0.561,0.691,0.738,0.485,0.56,0.685,0.73,0.462,,100.,0.,0.,0.,15.38,213.,213.
"2022-04-02",00:05,1.339,1.326,1.413,1.412,-0.123,1.38,64.89,-4.904,-4.061,269.1,315.4,-47.1,-1.445,-1.419,256.9,0,7999.,0.,100000,101.5143,0.2,0.2,5.035,6.02,5.534,4.258,5.28,4.062,0.566,5.111,5.88,6.413,-999,7.996,9.072,1.093,-999.,-999.,8.535,-6.269,-5.926,-7.783,-22.618,0.57,0.561,0.691,0.738,0.485,0.56,0.686,0.731,0.462,,100.,0.,0.,0.,15.38,213.,213.
"2022-04-02",00:06,1.342,1.362,1.436,1.424,-0.127,1.38,64.9,-4.894,-4.082,269.,315.3,-47.1,-1.445,-1.543,257.1,0,7999.,0.,100000,101.5099,0.2,0.2,5.227,5.83,2.333,4.068,4.77,1.934,0.566,5.101,5.883,6.41,-999,7.989,9.079,1.083,-999.,-999.,8.532,-6.271,-5.931,-7.784,-22.626,0.57,0.561,0.691,0.737,0.486,0.56,0.685,0.73,0.462,,100.,0.,0.,0.,15.38,213.,213.
"2022-04-02",00:07,1.339,1.343,1.445,1.431,-0.149,1.4,64.67,-4.904,-4.072,269.4,315.,-46.4,-1.445,-1.357,257.2,0,7999.,0.,100000,101.5109,0.2,0.2,4.832,5.47,2.667,3.758,4.72,4.064,0.566,5.091,5.883,6.403,-999,8.006,9.076,1.087,-999.,-999.,8.538,-6.272,-5.94,-7.793,-22.632,0.57,0.561,0.691,0.738,0.485,0.56,0.685,0.73,0.462,,100.,0.,0.,0.,15.38,213.,213.
"2022-04-02",00:08,1.352,1.362,1.399,1.408,-0.149,1.32,65.02,-4.915,-4.082,269.5,314.7,-46.0,-1.445,-1.294,257.5,0,7999.,0.,100000,101.5104,0.2,0.2,5.129,6.29,1.865,3.321,4.22,1.465,0.566,5.101,5.883,6.42,-999,8.003,9.072,1.087,-999.,-999.,8.532,-6.275,-5.945,-7.797,-22.638,0.57,0.561,0.691,0.737,0.485,0.56,0.685,0.73,0.462,,100.,0.,0.,0.,15.38,213.,213.
"2022-04-02",00:09,1.388,1.405,1.435,1.417,-0.182,1.36,64.57,-4.915,-4.082,269.9,315.1,-46.0,-1.445,-1.046,257.7,0,7843.,0.,100000,101.513,0.2,0.2,5.429,6.2,5.334,4.057,5.29,0.933,0.565,5.104,5.88,6.417,-999,7.999,9.079,1.087,-999.,-999.,8.529,-6.278,-5.951,-7.803,-22.647,0.57,0.561,0.691,0.738,0.485,0.56,0.686,0.73,0.462,,100.,0.,0.,0.,15.38,213.,213.
"2022-04-02",00:10,1.398,1.405,1.46,1.438,-0.189,1.4,63.88,-4.926,-4.082,269.8,315.,-46.0,-1.445,-1.295,257.8,0,7999.,0.,100000,101.5069,0.2,0.2,5.139,6.27,5.524,3.873,4.8,5.929,0.566,5.095,5.886,6.41,-999,8.006,9.076,1.083,-999.,-999.,8.535,-6.285,-5.958,-7.809,-22.654,0.57,0.561,0.691,0.738,0.485,0.56,0.685,0.73,0.462,,100.,0.,0.,0.,15.38,213.,213.
"2022-04-02",00:11,1.355,1.342,1.373,1.394,-0.189,1.353,65.05,-4.937,-4.093,269.9,314.1,-45.0,-1.445,-1.232,258.1,0,7999.,0.,100000,101.5098,0.2,0.2,4.483,5.14,2.202,2.933,3.97,3.054,0.566,5.094,5.886,6.4,-999,7.999,9.079,1.087,-999.,-999.,8.535,-6.287,-5.963,-7.815,-22.66,0.57,0.561,0.691,0.737,0.485,0.56,0.686,0.73,0.462,,100.,0.,0.,0.,15.38,213.,213.
"2022-04-02",00:12,1.29,1.27,1.294,1.325,-0.199,1.233,66.14,-4.937,-4.093,270.4,314.3,-44.7,-1.445,-1.046,258.3,0,7999.,0.,100000,101.5071,0.2,0.2,4.938,5.42,5.734,3.764,4.7,3.008,0.565,5.091,5.88,6.407,-999,8.003,9.076,1.074,-999.,-999.,8.539,-6.293,-5.969,-7.819,-22.666,0.57,0.561,0.691,0.737,0.485,0.56,0.686,0.731,0.462,,100.,0.,0.,0.,15.38,213.,213.
"2022-04-02",00:13,1.28,1.26,1.314,1.314,-0.189,1.22,65.37,-4.969,-4.125,270.9,314.9,-44.8,-1.445,-1.046,258.8,0,7999.,0.,100000,101.509,0.2,0.2,5.356,6.59,3.936,4.248,6.39,5.597,0.565,5.081,5.883,6.414,-999,8.006,9.076,1.07,-999.,-999.,8.535,-6.3,-5.976,-7.827,-22.672,0.57,0.561,0.691,0.737,0.485,0.56,0.686,0.731,0.462,,100.,0.,0.,0.,15.38,213.,213.
"2022-04-02",00:14,1.309,1.313,1.378,1.357,-0.192,1.3,64.31,-4.99,-4.093,271.,315.1,-45.0,-1.445,-1.17,259.,0,7999.,0.,100000,101.5022,0.2,0.2,4.943,5.34,0.401,3.407,4.13,2.363,0.565,5.095,5.89,6.424,-999,8.003,9.079,1.07,-999.,-999.,8.535,-6.306,-5.982,-7.83,-22.675,0.569,0.561,0.691,0.738,0.485,0.56,0.686,0.731,0.462,,100.,0.,0.,0.,15.38,213.,213.
"2022-04-02",00:15,1.309,1.293,1.369,1.363,-0.199,1.313,64.57,-4.947,-4.093,271.2,315.,-44.7,-1.445,-1.482,259.3,0,7999.,0.,100000,101.507,0.2,0.2,4.289,5.23,2.2,3.196,4.06,359.065,0.565,5.081,5.88,6.417,-999,8.003,9.079,1.067,-999.,-999.,8.535,-6.307,-5.99,-7.839,-22.68,0.569,0.561,0.691,0.738,0.485,0.56,0.686,0.731,0.462,,100.,0.,0.,0.,15.38,213.,213.
"2022-04-02",00:16,1.26,1.234,1.299,1.321,-0.202,1.22,65.97,-4.915,-4.082,271.5,314.8,-44.1,-1.445,-1.295,259.5,0,7999.,0.,100000,101.5119,0.2,0.2,4.286,5.11,3.131,3.488,4.84,3.071,0.565,5.088,5.88,6.417,-999,8.006,9.076,1.074,-999.,-999.,8.535,-6.273,-5.995,-7.841,-22.685,0.569,0.561,0.691,0.737,0.485,0.56,0.686,0.73,0.462,,100.,0.,0.,0.,15.38,213.,213.
"2022-04-02",00:17,1.214,1.202,1.239,1.254,-0.195,1.2,66.37,-4.937,-4.146,271.8,314.6,-43.6,-1.446,-1.357,259.9,0,7999.,0.,100000,101.5119,0.2,0.2,4.723,5.81,3.667,3.443,4.21,2.928,0.565,5.091,5.883,6.41,-999,8.006,9.079,1.06,-999.,-999.,8.535,-6.269,-5.998,-7.847,-22.687,0.569,0.561,0.691,0.737,0.485,0.56,0.686,0.731,0.462,,100.,0.,0.,0.,15.38,213.,213.
"2022-04-02",00:18,1.194,1.192,1.229,1.234,-0.192,1.187,66.09,-4.915,-4.146,272.3,314.3,-42.8,-1.446,-1.544,260.4,0,7999.,0.,100000,101.5126,0.2,0.2,4.463,5.27,0.339,3.651,4.79,1.596,0.565,5.085,5.883,6.41,-999,8.006,9.076,1.064,-999.,-999.,8.535,-6.276,-6.004,-7.856,-22.693,0.569,0.561,0.691,0.737,0.485,0.56,0.686,0.731,0.462,,100.,0.,0.,0.,15.38,213.,213.
"2022-04-02",00:19,1.204,1.185,1.172,1.195,-0.202,1.113,66.61,-4.904,-4.146,272.7,314.9,-43.0,-1.446,-1.295,260.7,0,7999.,0.,100000,101.5173,0.2,0.2,4.557,5.66,1.4,3.679,4.91,357.466,0.565,5.088,5.883,6.423,-999,8.003,9.079,1.054,-999.,-999.,8.539,-6.279,-6.011,-7.86,-22.697,0.569,0.561,0.691,0.737,0.485,0.56,0.685,0.731,0.462,,100.,0.,0.,0.,15.38,213.,213.
"2022-04-02",00:20,1.208,1.198,1.162,1.19,-0.238,1.1,66.8,-4.872,-4.146,272.7,314.9,-42.9,-1.446,-1.42,261.2,0,7999.,0.,100000,101.5197,0.2,0.2,4.658,5.62,1.997,3.426,5.08,0.604,0.565,5.085,5.883,6.417,-999,8.006,9.072,1.047,-999.,-999.,8.539,-6.289,-6.016,-7.865,-22.697,0.569,0.561,0.691,0.738,0.485,0.56,0.685,0.731,0.462,,100.,0.,0.,0.,15.38,213.,213.
"2022-04-02",00:21,1.188,1.172,1.171,1.192,-0.244,1.1,66.33,-4.851,-4.104,273.2,314.6,-42.1,-1.446,-1.046,261.6,0,7999.,0.,100000,101.5165,0.2,0.2,4.956,5.86,1.335,3.435,4.95,6.,0.565,5.085,5.88,6.414,-999,8.003,9.076,1.047,-999.,-999.,8.535,-6.291,-6.022,-7.871,-22.702,0.569,0.561,0.691,0.737,0.485,0.56,0.686,0.731,0.462,,100.,0.,0.,0.,15.38,213.,213.
"2022-04-02",00:22,1.139,1.106,1.163,1.169,-0.267,1.1,66.8,-4.851,-4.093,273.7,314.8,-41.9,-1.446,-1.42,261.9,0,7999.,0.,100000,101.5187,0.2,0.2,4.817,5.92,0.8,3.733,5.22,356.532,0.565,5.085,5.883,6.417,-999,8.006,9.076,1.047,-999.,-999.,8.535,-6.281,-6.03,-7.877,-22.705,0.569,0.561,0.691,0.737,0.485,0.56,0.686,0.731,0.462,,100.,0.,0.,0.,15.38,213.,213.
"2022-04-02",00:23,1.178,1.159,1.166,1.18,-0.257,1.1,66.62,-4.84,-4.093,274.,315.1,-41.8,-1.446,-1.295,262.3,0,7999.,0.,100000,101.525,0.2,0.2,4.983,6.34,4.132,3.896,5.2,3.467,0.565,5.085,5.877,6.43,-999,8.003,9.069,1.051,-999.,-999.,8.545,-6.27,-6.034,-7.882,-22.707,0.569,0.561,0.691,0.737,0.485,0.56,0.685,0.731,0.462,,100.,0.,0.,0.,15.38,213.,213.
"2022-04-02",00:24,1.214,1.215,1.211,1.192,-0.218,1.127,66.39,-4.84,-4.104,274.3,315.,-41.4,-1.446,-1.479,262.7,0,7999.,0.,100000,101.5173,0.2,0.2,4.908,6.15,2.597,3.551,4.78,4.312,0.565,5.075,5.89,6.424,-999,7.999,9.072,1.054,-999.,-999.,8.539,-6.264,-6.04,-7.888,-22.709,0.569,0.561,0.691,0.737,0.485,0.56,0.685,0.731,0.462,,100.,0.,0.,0.,15.38,213.,213.
"2022-04-02",00:25,1.263,1.277,1.282,1.249,-0.192,1.2,65.45,-4.84,-4.082,274.8,314.8,-40.8,-1.446,-1.354,263.3,0,7999.,0.,100000,101.5178,0.2,0.2,5.311,6.24,1.999,3.387,4.26,4.37,0.565,5.075,5.88,6.423,-999,8.003,9.076,1.047,-999.,-999.,8.545,-6.267,-6.046,-7.892,-22.708,0.569,0.561,0.691,0.737,0.485,0.56,0.685,0.73,0.462,,100.,0.,0.,0.,15.38,213.,213.
"2022-04-02",00:26,1.273,1.27,1.3,1.279,-0.185,1.213,65.61,-4.829,-4.082,275.,314.8,-40.5,-1.446,-1.479,263.3,0,7618.,0.,100000,101.5241,0.2,0.2,4.221,5.82,0.929,4.081,5.12,1.795,0.565,5.075,5.877,6.424,-999,8.006,9.069,1.047,-999.,-999.,8.542,-6.251,-6.051,-7.899,-22.71,0.569,0.561,0.691,0.737,0.485,0.56,0.686,0.731,0.462,,100.,0.,0.,0.,15.38,213.,213.
"2022-04-02",00:27,1.26,1.241,1.275,1.263,-0.185,1.2,66.09,-4.797,-4.072,274.9,315.,-40.8,-1.446,-1.355,263.3,0,7999.,0.,100000,101.5152,0.2,0.2,4.565,5.49,0.669,3.991,4.99,359.131,0.565,5.068,5.87,6.42,-999,8.003,9.072,1.038,-999.,-999.,8.539,-6.246,-6.057,-7.904,-22.707,0.569,0.561,0.691,0.737,0.485,0.56,0.685,0.731,0.462,,100.,0.,0.,0.,15.38,213.,213.
"2022-04-02",00:28,1.208,1.185,1.227,1.226,-0.189,1.16,66.53,-4.807,-4.072,274.8,315.4,-41.3,-1.446,-1.417,263.3,0,7999.,0.,100000,101.5159,0.2,0.2,4.867,6.1,359.939,4.225,5.61,357.866,0.565,5.068,5.87,6.427,-999,8.003,9.063,1.034,-999.,-999.,8.542,-6.246,-6.063,-7.91,-22.707,0.569,0.561,0.691,0.737,0.485,0.56,0.685,0.731,0.462,,100.,0.,0.,0.,15.38,213.,213.
"2022-04-02",00:29,1.181,1.159,1.185,1.203,-0.182,1.1,66.76,-4.764,-4.061,274.6,315.5,-41.6,-1.445,-1.418,263.2,0,7999.,0.,100000,101.5236,0.2,0.2,5.441,6.72,1.535,4.066,5.26,359.726,0.565,5.072,5.88,6.427,-999,8.006,9.072,1.038,-999.,-999.,8.542,-6.239,-6.069,-7.913,-22.706,0.569,0.561,0.691,0.737,0.485,0.56,0.686,0.73,0.462,,100.,0.,0.,0.,15.38,213.,213.
"2022-04-02",00:30,1.234,1.241,1.236,1.217,-0.199,1.153,65.72,-4.786,-4.082,274.5,315.1,-41.3,-1.445,-1.293,262.9,0,7999.,0.,100000,101.5205,0.2,0.2,5.122,6.23,0.741,3.559,4.62,355.215,0.565,5.065,5.873,6.427,-999,8.006,9.056,1.028,-999.,-999.,8.542,-6.226,-6.074,-7.919,-22.702,0.569,0.561,0.691,0.737,0.485,0.56,0.686,0.731,0.462,,100.,0.,0.,0.,15.38,213.,213.
"2022-04-02",00:31,1.191,1.165,1.206,1.206,-0.195,1.153,66.29,-4.775,-4.093,274.,314.8,-41.5,-1.445,-1.541,262.5,0,7999.,0.,100000,101.5187,0.2,0.2,4.413,5.32,0.062,3.451,4.14,356.619,0.565,5.065,5.867,6.43,-999,8.003,9.049,1.024,-999.,-999.,8.542,-6.247,-6.08,-7.926,-22.698,0.569,0.561,0.691,0.737,0.485,0.56,0.685,0.731,0.462,,100.,0.,0.,0.,15.38,213.,213.
"2022-04-02",00:32,1.175,1.172,1.2,1.206,-0.225,1.1,66.62,-4.754,-4.072,273.8,314.8,-41.7,-1.445,-1.353,262.1,0,7999.,0.,100000,101.5185,0.2,0.2,4.807,5.6,355.064,4.167,5.05,358.4,0.565,5.062,5.863,6.427,-999,8.006,9.056,1.031,-999.,-999.,8.536,-6.281,-6.086,-7.931,-22.694,0.569,0.561,0.691,0.737,0.485,0.56,0.685,0.731,0.462,,100.,0.,0.,0.,15.38,213.,213.
"2022-04-02",00:33,1.149,1.139,1.194,1.203,-0.189,1.1,66.59,-4.786,-4.093,273.3,315.,-42.4,-1.445,-1.353,261.5,0,7999.,0.,100000,101.5225,0.2,0.2,4.169,5.37,0.396,3.69,4.72,357.316,0.565,5.062,5.867,6.43,-999,8.006,9.056,1.018,-999.,-999.,8.536,-6.304,-6.094,-7.938,-22.687,0.569,0.561,0.691,0.737,0.485,0.56,0.685,0.73,0.462,,100.,0.,0.,0.,15.38,213.,213.
"2022-04-02",00:34,1.126,1.123,1.179,1.184,-0.195,1.1,67.21,-4.775,-4.104,272.7,314.7,-42.7,-1.445,-0.98,260.9,0,7999.,0.,100000,101.5232,0.2,0.2,4.861,5.72,359.125,3.601,4.74,359.,0.565,5.062,5.87,6.43,-999,8.003,9.059,1.011,-999.,-999.,8.532,-6.304,-6.099,-7.945,-22.679,0.569,0.561,0.691,0.737,0.485,0.56,0.685,0.731,0.461,,100.,0.,0.,0.,15.38,213.,213.
"2022-04-02",00:35,1.119,1.1,1.17,1.158,-0.199,1.1,67.01,-4.797,-4.136,272.2,314.7,-43.2,-1.445,-1.167,260.5,0,7999.,0.,100000,101.5187,0.2,0.2,5.559,6.62,357.664,3.701,4.5,0.8,0.565,5.065,5.86,6.427,-999,7.999,9.043,1.018,-999.,-999.,8.539,-6.305,-6.105,-7.948,-22.67,0.569,0.561,0.691,0.738,0.485,0.56,0.685,0.731,0.461,,100.,0.,0.,0.,15.38,213.,213.
"2022-04-02",00:36,1.116,1.126,1.194,1.179,-0.218,1.1,66.61,-4.84,-4.146,272.,314.8,-43.5,-1.445,-1.229,260.,0,7999.,0.,100000,101.5164,0.2,0.2,5.549,7.04,357.933,4.11,5.43,359.622,0.565,5.068,5.86,6.434,-999,7.999,9.059,1.015,-999.,-999.,8.542,-6.312,-6.109,-7.953,-22.661,0.569,0.561,0.691,0.737,0.485,0.56,0.686,0.73,0.462,,100.,0.,0.,0.,15.38,213.,213.
"2022-04-02",00:37,1.129,1.149,1.216,1.217,-0.238,1.1,66.15,-4.84,-4.157,271.7,314.7,-43.7,-1.445,-1.292,259.7,0,7999.,0.,100000,101.5136,0.2,0.2,5.066,5.89,359.2,3.683,5.56,1.468,0.565,5.049,5.857,6.414,-999,8.006,9.049,1.008,-999.,-999.,8.536,-6.317,-6.117,-7.958,-22.653,0.569,0.561,0.691,0.737,0.485,0.56,0.686,0.73,0.462,,100.,0.,0.,0.,15.38,213.,213.
"2022-04-02",00:38,1.116,1.113,1.183,1.202,-0.271,1.1,66.84,-4.851,-4.157,271.7,314.6,-43.6,-1.445,-1.603,259.3,0,7999.,0.,100000,101.5178,0.2,0.2,4.183,5.27,357.997,3.677,4.3,356.666,0.565,5.049,5.864,6.434,-999,7.996,9.046,1.011,-999.,-999.,8.536,-6.319,-6.123,-7.964,-22.641,0.568,0.561,0.691,0.737,0.485,0.56,0.685,0.731,0.462,,100.,0.,0.,0.,15.38,213.,213.
"2022-04-02",00:39,1.109,1.097,1.13,1.149,-0.271,1.,67.73,-4.861,-4.199,271.,314.6,-44.3,-1.445,-1.293,259.1,0,7999.,0.,100000,101.5284,0.2,0.2,4.513,5.33,357.,3.426,4.65,356.8,0.565,5.052,5.864,6.43,-999,8.006,9.056,0.992,-999.,-999.,8.529,-6.321,-6.128,-7.967,-22.631,0.569,0.561,0.691,0.737,0.485,0.56,0.686,0.73,0.461,,100.,0.,0.,0.,15.38,213.,213.
"2022-04-02",00:40,1.07,1.061,1.12,1.117,-0.293,1.,67.45,-4.84,-4.178,270.9,314.5,-44.3,-1.445,-1.293,258.8,0,7999.,0.,100000,101.5278,0.2,0.2,4.933,5.8,357.133,3.735,5.17,358.998,0.565,5.049,5.854,6.427,-999,8.006,9.056,0.985,-999.,-999.,8.532,-6.343,-6.133,-7.975,-22.62,0.569,0.561,0.691,0.737,0.485,0.56,0.686,0.731,0.461,,100.,0.,0.,0.,15.38,213.,213.
"2022-04-02",00:41,1.083,1.1,1.154,1.144,-0.329,1.047,66.87,-4.894,-4.21,270.9,314.3,-44.1,-1.445,-1.355,258.6,0,7999.,0.,100000,101.525,0.2,0.2,4.647,5.81,357.2,3.289,4.2,356.673,0.565,5.055,5.851,6.427,-999,8.006,9.059,0.979,-999.,-999.,8.526,-6.364,-6.14,-7.979,-22.61,0.568,0.561,0.691,0.737,0.485,0.56,0.685,0.73,0.461,,100.,0.,0.,0.,15.38,213.,213.
"2022-04-02",00:42,1.129,1.152,1.194,1.18,-0.339,1.1,66.25,-4.904,-4.21,270.9,314.4,-44.2,-1.445,-0.982,258.7,0,7999.,0.,100000,101.5212,0.2,0.2,4.633,5.59,356.268,3.781,4.51,354.8,0.565,5.049,5.847,6.424,-999,7.999,9.056,0.992,-999.,-999.,8.522,-6.375,-6.145,-7.986,-22.599,0.569,0.561,0.691,0.737,0.485,0.56,0.685,0.731,0.461,,100.,0.,0.,0.,15.38,213.,213.
"2022-04-02",00:43,1.119,1.11,1.176,1.17,-0.343,1.1,66.63,-4.904,-4.242,270.7,314.2,-44.2,-1.445,-1.169,259.,0,7999.,0.,100000,101.5228,0.2,0.2,4.553,5.56,356.136,3.64,4.29,357.925,0.565,5.045,5.844,6.42,-999,8.003,9.056,0.985,-999.,-999.,8.526,-6.379,-6.153,-7.989,-22.59,0.569,0.561,0.691,0.737,0.485,0.56,0.686,0.731,0.462,,100.,0.,0.,0.,15.38,213.,213.
"2022-04-02",00:44,1.063,1.041,1.138,1.139,-0.343,1.047,67.1,-4.904,-4.274,271.1,314.3,-43.8,-1.445,-1.356,259.,0,7999.,0.,100000,101.5185,0.2,0.2,4.431,5.97,355.133,3.895,5.03,351.128,0.565,5.049,5.847,6.43,-999,7.996,9.049,0.988,-999.,-999.,8.519,-6.397,-6.155,-7.997,-22.582,0.569,0.561,0.691,0.737,0.485,0.56,0.686,0.731,0.461,,100.,0.,0.,0.,15.38,213.,213.
"2022-04-02",00:45,1.024,1.002,1.056,1.075,-0.343,1.,67.99,-4.894,-4.253,271.2,314.2,-43.6,-1.445,-1.418,259.,0,7999.,0.,100000,101.519,0.2,0.2,5.049,6.11,0.274,4.153,5.19,357.096,0.565,5.042,5.844,6.427,-999,7.999,9.049,0.975,-999.,-999.,8.522,-6.403,-6.163,-8.,-22.573,0.568,0.561,0.691,0.737,0.485,0.56,0.685,0.73,0.461,,100.,0.,0.,0.,15.38,213.,213.
"2022-04-02",00:46,1.027,1.025,1.099,1.079,-0.343,1.,67.17,-4.84,-4.231,271.3,314.6,-43.9,-1.445,-1.232,259.1,0,7999.,0.,100000,101.518,0.2,0.2,4.827,5.98,359.525,4.081,5.96,356.352,0.565,5.045,5.847,6.42,-999,7.999,9.049,0.975,-999.,-999.,8.523,-6.414,-6.17,-8.005,-22.564,0.569,0.561,0.691,0.737,0.485,0.56,0.685,0.731,0.461,,100.,0.,0.,0.,15.38,213.,213.
"2022-04-02",00:47,0.988,0.949,1.044,1.054,-0.343,0.967,67.73,-4.851,-4.231,271.,314.5,-44.1,-1.445,-1.543,259.1,0,7999.,0.,100000,101.5172,0.2,0.2,4.799,5.56,0.267,3.788,4.64,357.204,0.565,5.042,5.841,6.427,-999,8.006,9.053,0.972,-999.,-999.,8.519,-6.441,-6.175,-8.01,-22.561,0.569,0.561,0.691,0.737,0.485,0.56,0.685,0.731,0.461,,100.,0.,0.,0.,15.38,213.,213.
"2022-04-02",00:48,0.962,0.92,0.979,1.007,-0.346,0.9,68.62,-4.829,-4.231,271.4,314.1,-43.3,-1.445,-1.668,259.4,0,7999.,0.,100000,101.5216,0.2,0.2,4.567,5.12,358.066,2.729,3.31,356.392,0.565,5.052,5.837,6.404,-999,8.003,9.053,0.956,-999.,-999.,8.522,-6.461,-6.181,-8.016,-22.562,0.569,0.561,0.691,0.737,0.485,0.56,0.685,0.731,0.461,,100.,0.,0.,0.,15.38,213.,213.
"2022-04-02",00:49,0.932,0.923,0.968,0.986,-0.346,0.9,68.65,-4.829,-4.21,271.3,314.2,-43.5,-1.445,-1.108,259.6,0,7784.,0.,100000,101.5207,0.2,0.2,4.621,5.49,0.199,3.784,4.5,359.732,0.565,5.045,5.837,6.414,-999,8.006,9.053,0.943,-999.,-999.,8.526,-6.469,-6.186,-8.021,-22.573,0.568,0.561,0.691,0.737,0.485,0.56,0.686,0.731,0.461,,100.,0.,0.,0.,15.38,212.9,213.
"2022-04-02",00:50,0.955,0.966,0.984,0.987,-0.349,0.9,68.06,-4.84,-4.231,271.6,313.9,-42.9,-1.445,-1.419,259.7,0,7999.,0.,100000,101.5174,0.2,0.2,5.017,5.63,0.001,3.44,5.09,359.803,0.565,5.045,5.837,6.43,-999,8.006,9.043,0.939,-999.,-999.,8.526,-6.467,-6.191,-8.026,-22.574,0.569,0.561,0.691,0.737,0.485,0.56,0.685,0.731,0.461,,100.,0.,0.,0.,15.38,213.,213.
"2022-04-02",00:51,0.994,1.015,1.032,1.015,-0.339,0.953,67.48,-4.861,-4.21,271.7,314.,-43.0,-1.445,-1.232,260.,0,7999.,0.,100000,101.5144,0.2,0.2,4.599,5.29,0.469,3.779,4.66,3.061,0.565,5.042,5.841,6.411,-999,7.996,9.046,0.93,-999.,-999.,8.516,-6.473,-6.195,-8.029,-22.568,0.569,0.561,0.691,0.737,0.485,0.56,0.685,0.731,0.461,,100.,0.,0.,0.,15.38,213.,213.
"2022-04-02",00:52,0.978,0.962,0.983,0.999,-0.343,0.9,68.24,-4.872,-4.21,272.1,313.9,-42.5,-1.445,-1.108,260.2,0,7999.,0.,100000,101.5179,0.2,0.2,4.107,5.65,5.669,3.146,4.68,358.928,0.565,5.042,5.841,6.411,-999,7.996,9.043,0.93,-999.,-999.,8.533,-6.475,-6.203,-8.036,-22.559,0.568,0.561,0.691,0.737,0.485,0.56,0.685,0.731,0.461,,100.,0.,0.,0.,15.38,213.,213.
"2022-04-02",00:53,0.978,1.002,0.984,0.999,-0.339,0.9,68.14,-4.861,-4.21,272.2,313.8,-42.3,-1.445,-1.357,260.7,0,7999.,0.,100000,101.5166,0.2,0.2,4.086,5.1,3.606,2.908,3.74,3.141,0.565,5.042,5.841,6.407,-999,8.006,9.046,0.93,-999.,-999.,8.529,-6.483,-6.209,-8.04,-22.554,0.568,0.561,0.691,0.737,0.485,0.56,0.685,0.731,0.461,,100.,0.,0.,0.,15.38,213.,213.
"2022-04-02",00:54,1.001,1.018,0.974,0.993,-0.346,0.9,68.3,-4.861,-4.199,272.6,314.,-42.1,-1.445,-1.108,260.9,0,7999.,0.,100000,101.5163,0.2,0.2,4.632,5.92,4.73,3.283,4.98,357.614,0.565,5.032,5.837,6.404,-999,8.006,9.049,0.93,-999.,-999.,8.523,-6.491,-6.215,-8.046,-22.545,0.568,0.561,0.691,0.737,0.485,0.56,0.685,0.731,0.461,,100.,0.,0.,0.,15.38,212.9,213.
"2022-04-02",00:55,0.988,1.008,1.006,1.005,-0.343,0.913,67.71,-4.861,-4.157,272.7,314.,-42.0,-1.445,-0.921,261.2,0,7999.,0.,100000,101.5156,0.2,0.2,4.686,5.5,5.203,3.476,4.43,6.006,0.565,5.032,5.841,6.407,-999,8.003,9.043,0.933,-999.,-999.,8.523,-6.485,-6.219,-8.05,-22.543,0.568,0.561,0.691,0.737,0.485,0.56,0.686,0.731,0.461,,100.,0.,0.,0.,15.38,212.9,213.
"2022-04-02",00:56,0.975,0.988,1.003,1.002,-0.349,0.9,67.73,-4.851,-4.136,273.4,314.1,-41.4,-1.445,-1.233,261.6,0,7999.,0.,100000,101.5155,0.2,0.2,4.821,5.59,3.269,4.05,4.72,6.066,0.565,5.029,5.841,6.401,-999,8.006,9.04,0.936,-999.,-999.,8.536,-6.493,-6.226,-8.056,-22.555,0.568,0.561,0.691,0.737,0.485,0.56,0.686,0.731,0.461,,100.,0.,0.,0.,15.38,213.,213.
"2022-04-02",00:57,0.978,0.995,0.991,0.999,-0.359,0.9,67.98,-4.84,-4.093,273.7,314.1,-41.1,-1.445,-1.419,262.2,0,7999.,0.,100000,101.5186,0.2,0.2,5.035,6.05,6.199,3.506,4.53,5.93,0.565,5.032,5.844,6.401,-999,8.006,9.04,0.933,-999.,-999.,8.526,-6.498,-6.232,-8.062,-22.56,0.569,0.561,0.691,0.737,0.485,0.56,0.685,0.731,0.461,,100.,0.,0.,0.,15.38,213.,213.
"2022-04-02",00:58,0.978,1.008,0.997,0.997,-0.375,0.9,67.77,-4.818,-4.083,273.8,314.3,-41.2,-1.445,-1.295,262.5,0,7999.,0.,100000,101.517,0.2,0.2,4.209,4.95,2.33,3.177,3.94,5.131,0.565,5.029,5.841,6.408,-999,7.999,9.04,0.926,-999.,-999.,8.533,-6.504,-6.238,-8.066,-22.555,0.568,0.561,0.691,0.737,0.485,0.56,0.686,0.731,0.461,,100.,0.,0.,0.,15.38,213.,213.
"2022-04-02",00:59,0.968,0.969,0.974,0.99,-0.378,0.9,68.32,-4.829,-4.04,274.5,314.,-40.3,-1.445,-1.544,263.1,0,7999.,0.,100000,101.5223,0.2,0.2,4.277,4.8,1.333,3.432,4.32,0.667,0.565,5.029,5.844,6.404,-999,8.006,9.04,0.926,-999.,-999.,8.533,-6.513,-6.247,-8.072,-22.55,0.568,0.561,0.691,0.737,0.485,0.56,0.685,0.731,0.461,,100.,0.,0.,0.,15.38,213.,213.
"2022-04-02",01:00,0.935,0.923,0.947,0.961,-0.382,0.887,68.57,-4.829,-4.04,274.9,313.6,-39.5,-1.445,-1.357,263.5,0,7999.,0.,100000,101.5248,0.2,0.2,4.378,5.18,4.599,2.915,3.6,1.601,0.565,5.026,5.844,6.411,-999,7.999,9.04,0.93,-999.,-999.,8.533,-6.524,-6.251,-8.075,-22.543,0.568,0.561,0.691,0.737,0.485,0.56,0.686,0.731,0.461,,100.,0.,0.,0.,15.38,213.,213.
"2022-04-02",01:01,0.896,0.893,0.902,0.923,-0.395,0.8,69.07,-4.797,-4.051,275.7,313.6,-38.6,-1.445,-1.108,264.,0,7999.,0.,100000,101.5268,0.2,0.2,4.605,5.39,1.068,3.201,4.68,3.932,0.565,5.019,5.844,6.411,-999,7.999,9.04,0.926,-999.,-999.,8.529,-6.526,-6.255,-8.081,-22.538,0.568,0.561,0.691,0.737,0.485,0.56,0.686,0.731,0.461,,100.,0.,0.,0.,15.38,212.9,213.
"2022-04-02",01:02,0.899,0.92,0.939,0.929,-0.421,0.867,68.41,-4.818,-4.061,276.1,314.2,-38.9,-1.445,-1.233,264.7,0,7999.,0.,100000,101.5296,0.2,0.2,5.115,6.14,2.532,3.852,4.88,0.931,0.564,5.023,5.844,6.408,-999,8.003,9.04,0.92,-999.,-999.,8.536,-6.53,-6.263,-8.086,-22.534,0.568,0.561,0.691,0.737,0.485,0.56,0.685,0.731,0.461,,100.,0.,0.,0.,15.38,213.,213.
"2022-04-02",01:03,0.919,0.93,0.968,0.953,-0.418,0.9,67.94,-4.775,-4.061,276.8,314.6,-38.5,-1.445,-1.046,265.1,0,7999.,0.,100000,101.5289,0.2,0.2,4.184,4.78,1.334,3.63,4.86,358.134,0.565,5.016,5.841,6.411,-999,7.999,9.04,0.913,-999.,-999.,8.533,-6.534,-6.267,-8.091,-22.521,0.568,0.561,0.691,0.737,0.485,0.56,0.686,0.731,0.461,,100.,0.,0.,0.,15.38,213.,213.
"2022-04-02",01:04,0.886,0.913,0.962,0.965,-0.414,0.9,68.33,-4.711,-4.051,277.2,314.7,-38.2,-1.445,-1.417,265.7,0,7999.,0.,100000,101.5284,0.2,0.2,4.942,5.95,359.599,3.315,4.15,1.776,0.564,5.019,5.851,6.411,-999,8.006,9.04,0.923,-999.,-999.,8.529,-6.528,-6.274,-8.095,-22.499,0.568,0.561,0.691,0.737,0.485,0.56,0.686,0.731,0.461,,100.,0.,0.,0.,15.38,212.9,213.
"2022-04-02",01:05,0.919,0.946,0.984,0.993,-0.388,0.9,68.17,-4.689,-4.061,277.7,315.,-37.9,-1.445,-1.23,266.3,0,7999.,0.,100000,101.5272,0.2,0.2,4.695,5.69,359.132,3.831,5.3,356.116,0.564,5.019,5.844,6.411,-999,7.999,9.036,0.923,-999.,-999.,8.529,-6.54,-6.28,-8.099,-22.498,0.568,0.561,0.691,0.737,0.485,0.56,0.686,0.731,0.461,,100.,0.,0.,0.,15.38,212.9,213.
"2022-04-02",01:06,0.935,0.949,0.982,0.995,-0.379,0.9,68.3,-4.646,-4.019,278.1,314.4,-36.9,-1.445,-1.479,266.9,0,7999.,0.,100000,101.5275,0.2,0.2,4.504,5.84,358.999,3.755,4.35,357.335,0.565,5.026,5.851,6.411,-999,8.003,9.046,0.92,-999.,-999.,8.516,-6.554,-6.286,-8.104,-22.497,0.568,0.561,0.691,0.737,0.485,0.56,0.686,0.731,0.461,,100.,0.,0.,0.,15.38,212.9,212.9
"2022-04-02",01:07,0.935,0.949,0.977,0.987,-0.398,0.9,68.54,-4.636,-4.008,278.4,314.5,-36.7,-1.445,-1.168,267.3,0,7999.,0.,100000,101.5266,0.2,0.2,4.341,4.74,3.6,3.14,4.33,0.666,0.564,5.026,5.851,6.411,-999,7.993,9.036,0.93,-999.,-999.,8.533,-6.563,-6.291,-8.107,-22.496,0.568,0.561,0.691,0.737,0.485,0.56,0.685,0.731,0.461,,100.,0.,0.,0.,15.38,212.9,212.9